AirNav   Phillips 66 Aviation Fuel
 
 278 users online  

CO90 USAF Academy Bullseye Auxiliary Airfield
Ellicott, Colorado, USA

GOING TO ELLICOTT?


FAA INFORMATION EFFECTIVE 12 SEPTEMBER 2019

Location

FAA Identifier: CO90
Lat/Long: 38-45-31.0000N 104-18-02.0000W
38-45.516667N 104-18.033333W
38.7586111,-104.3005556
(estimated)
Elevation: 6036 ft. / 1840 m (estimated)
Variation: 11E (1990)
From city: 6 miles N of ELLICOTT, CO
Time zone: UTC -6 (UTC -7 during Standard Time)
Zip code: 80864

Airport Operations

Airport use: Private use. Permission required prior to landing
Activation date: 12/1990
Control tower: no
ARTCC: DENVER CENTER
FSS: DENVER FLIGHT SERVICE STATION
Attendance: MON-FRI SR-SS, ALL SAT 1430-2130Z
CLSD SUN & HOL.
1430Z OR SR (WHICHEVER IS LATER)-2130Z DUR VFR.
Wind indicator: yes
Segmented circle: no

Airport Communications

UNICOM: 122.725
WX ASOS: 125.0 (719-637-9696)
WX AWOS-3PT at FLY (17 nm NW): 118.450 (719-683-5371)
WX ASOS at COS (19 nm W): PHONE 719-380-6748

Nearby radio navigation aids

VOR radial/distance  VOR name  Freq  Var
BRKr118/19.1BLACK FOREST VOR/DME112.5008E
FCSr066/21.9BUTTS VOR/DME108.8012E
PUBr004/28.5PUEBLO VORTAC116.7008E
HGOr257/32.0HUGO VOR/DME112.1007E

 
NDB name  Hdg/Dist  Freq  Var  ID
IRONHORSE065/21.733512EIHS .. .... ...

Airport Services

Runway Information

Runway 17/35

Dimensions: 3500 x 75 ft. / 1067 x 23 m
Surface: asphalt
Weight bearing capacity: 
PCN 30 /F/B/W/T
RUNWAY 17  RUNWAY 35
Traffic pattern: leftleft

Airport Ownership and Management from official FAA records

Ownership: U.S. Air Force
Owner: US AIR FORCE ACADEMY
US AIR FORCE ACADEMY
COLORADO SPRINGS, CO 80840
Manager: CHIEF AIRFIELD MANAGEMENT
U S A F ACADEMY CO
COLORADO SPRINGS, CO 80840
Phone 719-472-1665

Additional Remarks

MISC: "OVRN ARE 200'. REMOTE WX BRIEFING SVC AVBL DAVIS-MONTHAN AFB, 25 OWS DSN 228-6598 C520-228-6598 TOLL FREE 877-451-8367."
CAUTION: IN THE VICINITY OF BULLSEYE AUX AFLD ARE HORNED LARKS. PHASE II IS FROM MAR-MAY AND SEPT-NOV. ALL OTHER PERIODS ARE PHASE I.
CAUTION: BEFORE CONDUCTING FLT NEAR THIS AREA, PILOTS ARE REQUIRED TO OBTAIN PRIOR APPROVAL BY CTC 306TH OSS AFLD MGR DSN 333-2526 OR C719-333-2526.
CAUTION: AFLD CONTAINS NSTD NATL INTERCOLLEGIATE FLYING ASSOC MRK.
RSTD: LTD EXCLUSIVELY TO 306 FTG ASGN ACFT ONLY. USAF FIRE DEPT ON DUTY ONLY DUR 306 FTG OPR. FIRE DEPT ON STN BY FIRST TKOF BASED ON FLT SKEDS. ALTHOUGH VFR SUPP INDICATES CLOSURE AT SS, A NOTAM COULD CLOSE AFLD PRIOR. OTHER REQ CTC AFLD MANAGER, DSN 333-2367 OR C719-333-2367. NO GND SVC OR FAC AVBL.
FOR CD CTC COLORADO SPRINGS APCH AT 719-556-9105.

Instrument Procedures

There are no published instrument procedures at CO90.

Some nearby airports with instrument procedures:

KCOS - City of Colorado Springs Municipal Airport (19 nm W)
KPUB - Pueblo Memorial Airport (30 nm S)
1V6 - Fremont County Airport (43 nm SW)
KAPA - Centennial Airport (55 nm NW)
KLHX - La Junta Municipal Airport (56 nm SE)
 
Loc | Ops | Rwys | IFR | FBO | Links
Com | Nav | Svcs | Stats | Notes

AirBoss

 
Area around CO90 (USAF Academy Bullseye Auxiliary Airfield)
 
Road maps at: MapQuest Bing Google
 
Aerial photo
No photo
 
Sectional chart

 
Airport distance calculator
Flying to USAF Academy Bullseye Auxiliary Airfield? Find the distance to fly.

From to CO90

Sunrise and sunset
Times for 24-Sep-2019
 Local
(UTC-6)
 Zulu
(UTC)
Morning civil twilight06:2112:21
Sunrise06:4812:48
Sunset18:5100:51
Evening civil twilight19:1701:17

Current date and time
Zulu (UTC)  24-Sep-2019 09:10:04
Local (UTC-6)  24-Sep-2019 03:10:04
 
METAR
KFLY 
17nm NW 
240835Z AUTO 12006KT 10SM OVC110 17/M04 A3017 RMK AO2 T01701036
KCOS 
20nm W 
240854Z 36003KT 10SM BKN110 16/M02 A3012 RMK AO2 SLP111 T01611022 58001
KFCS 
23nm W 
240858Z AUTO 33008KT 10SM OVC100 17/M03 A3006 RMK AO2 SLP121 T01651031 58003 $
KAFF 
27nm NW 
240858Z AUTO 01003KT 10SM OVC110 14/M03 A3012 RMK AO2 SLP113 T01401029 56004
KPUB 
30nm S 
240853Z AUTO 33004KT 10SM OVC120 19/M02 A3000 RMK AO2 SLP092 T01941017 56006
KMNH 
32nm NW 
240848Z AUTO 25005KT 10SM OVC110 13/M02 A3018 RMK AO2
TAF
KCOS 
20nm W 
240520Z 2406/2506 35006KT P6SM SCT150 BKN200 FM240800 35009KT P6SM SCT140 FM241700 18008KT P6SM FEW200
KFCS 
23nm W 
240510Z 2405/2511 VRB06KT 9999 SCT130 BKN160 QNH3011INS BECMG 2416/2417 16009KT 9999 SKC QNH3005INS BECMG 2420/2421 27012KT 9999 SKC QNH2998INS TX28/2421Z TN10/2412Z
NOTAMs
Click for the latest NOTAMs
NOTAMs are issued by the DoD/FAA and will open in a separate window not controlled by AirNav.

 

 
 

Would you like to see your business listed on this page?

 If your business provides an interesting product or service to pilots, flight crews, aircraft, or users of the USAF Academy Bullseye Auxiliary Airfield, you should consider listing it here.  To start the listing process, click on the button below
 
Add a business
 

Other Pages about USAF Academy Bullseye Auxiliary Airfield

Update a link
 
Copyright © AirNav, LLC. All rights reserved. Privacy Policy  Contact